This is the latest recevied weather packets stored in our database for station/object N2ZVN. If no packets are shown the sender has not sent any weather packets the latest 10 day(s).
| Time | Temp. | Humidity | Pressure | Rain* | Wind** | Luminosity | Snow |
|---|---|---|---|---|---|---|---|
| 1777593303 | 8.89° C | 54% | 1012.8 hPa | 0 mm | - | 9 W/m² | - |
| 1777592997 | 8.89° C | 54% | 1012.9 hPa | 0 mm | - | 12 W/m² | - |
| 1777592691 | 9.44° C | 52% | 1012.8 hPa | 0 mm | - | 15 W/m² | - |
| 1777592387 | 9.44° C | 50% | 1012.6 hPa | 0 mm | - | 17 W/m² | - |
| 1777592083 | 9.44° C | 52% | 1012.9 hPa | 0 mm | - | 19 W/m² | - |
| 1777591781 | 9.44° C | 52% | 1012.6 hPa | 0 mm | - | 21 W/m² | - |
| 1777591476 | 9.44° C | 51% | 1012.8 hPa | 0 mm | - | 23 W/m² | - |
| 1777591172 | 10° C | 51% | 1012.9 hPa | 0 mm | - | 26 W/m² | - |
| 1777590867 | 10° C | 51% | 1012.8 hPa | 0 mm | - | 32 W/m² | - |
| 1777590564 | 10° C | 50% | 1012.6 hPa | 0 mm | - | 36 W/m² | - |
| 1777590260 | 10° C | 51% | 1012.6 hPa | 0 mm | - | 42 W/m² | - |
| 1777589958 | 10° C | 50% | 1012.7 hPa | 0 mm | - | 35 W/m² | - |
| 1777589654 | 10° C | 51% | 1012.6 hPa | 0 mm | - | 44 W/m² | - |
| 1777589351 | 10° C | 50% | 1012.6 hPa | 0 mm | - | 66 W/m² | - |
| 1777589048 | 10° C | 52% | 1012.5 hPa | 0 mm | - | 74 W/m² | - |
| 1777588744 | 10° C | 51% | 1012.8 hPa | 0 mm | - | 61 W/m² | - |
| 1777588440 | 10.56° C | 52% | 1012.5 hPa | 0 mm | - | 56 W/m² | - |
| 1777588135 | 10.56° C | 51% | 1012.4 hPa | 0 mm | - | 59 W/m² | - |
| 1777587832 | 10° C | 52% | 1012.5 hPa | 0 mm | - | 91 W/m² | - |
| 1777587531 | 10° C | 51% | 1012.5 hPa | 0 mm | - | 97 W/m² | - |
| 1777587227 | 10° C | 51% | 1012.5 hPa | 0 mm | - | 77 W/m² | - |
| 1777586923 | 10.56° C | 50% | 1012.3 hPa | 0 mm | - | 62 W/m² | - |
| 1777586619 | 10.56° C | 51% | 1012.4 hPa | 0 mm | - | 110 W/m² | - |
| 1777586315 | 10° C | 52% | 1012.5 hPa | 0 mm | - | 147 W/m² | - |
| 1777586013 | 10° C | 54% | 1012.4 hPa | 0 mm | - | 120 W/m² | - |
* Rain latest hour (hover to see other rain measurements)
** Current wind speed in m/s (hover to see current wind gust speed)